Regional Weather Roundup
Issued by NWS Little Rock, AR

Home | Current Version | Previous Version | Text Only | Print | Product List | Glossary On
Versions: 1 2 3 4 5 6 7 8 9 10 11 12 13 14 15 16 17 18 19 20 21 22 23 24 25 26 27 28 29 30 31 32
000
ASUS44 KLZK 202205
RWRLZK

WEATHER ROUNDUP FOR ARKANSAS
NATIONAL WEATHER SERVICE LITTLE ROCK AR
500 PM CDT FRI APR 20 2018

NOTE: "FAIR" INDICATES FEW OR NO CLOUDS BELOW 12,000 FEET WITH NO
SIGNIFICANT WEATHER AND/OR OBSTRUCTIONS TO VISIBILITY.

ARZ001-003-010-029-202300-
NORTHWEST ARKANSAS

CITY           SKY/WX    TMP DP  RH WIND       PRES   REMARKS
FAYETTEVILLE   SUNNY     68  24  19 SE13      30.19F
FORT SMITH     SUNNY     68  33  27 E16G26    30.18F
HARRISON       SUNNY     67  24  19 SE13G20   30.24F
BENTONVILLE    SUNNY     67  31  26 E8G16     30.21F
ROGERS         SUNNY     66  31  27 E14       30.20F
SILOAM SPGS    SUNNY     69  30  23 SE8       30.18F
HIGHFILL       SUNNY     68  32  26 E8        30.19F
SPRINGDALE     SUNNY     70  25  18 SE9G17    30.20F
$$

ARZ004-005-016-202300-
NORTH CENTRAL ARKANSAS

CITY           SKY/WX    TMP DP  RH WIND       PRES   REMARKS
BATESVILLE     SUNNY     67  25  20 E13       30.29F
FLIPPIN        SUNNY     68  22  17 E10G18    30.26F
MTN HOME       SUNNY     67  17  14 SE10G22   30.26
$$

ARZ040-041-202300-
WEST CENTRAL ARKANSAS

CITY           SKY/WX    TMP DP  RH WIND       PRES   REMARKS
MENA           SUNNY     70  32  24 E6        30.19F
MOUNT IDA      SUNNY     67  34  29 E8        30.19F
$$

ARZ009-017-025-026-028-202300-
NORTHEAST ARKANSAS

CITY           SKY/WX    TMP DP  RH WIND       PRES   REMARKS
CORNING        FAIR      66  28  24 NE13G20   30.31F
JONESBORO      FAIR      66  32  28 E13G23    30.29F
NEWPORT        FAIR      67  25  20 NE15      30.28F
WALNUT RIDGE   FAIR      67  22  18 E16       30.29F
BLYTHEVILLE    FAIR      68  30  24 NE13G18   30.30F
$$

ARZ022-023-033-042-044-202300-
CENTRAL ARKANSAS

CITY           SKY/WX    TMP DP  RH WIND       PRES   REMARKS
LITTLE ROCK    FAIR      67  33  28 E13       30.25F
N LITTLE ROCK    N/A     66  37  34 E10       30.23F
JACKSONVILLE   SUNNY     68  34  29 E13G21    30.24F
CONWAY           N/A     68  32  26 NE13      30.23F
SEARCY         FAIR      67  32  27 MISG        N/A
HOT SPRINGS    SUNNY     68  32  26 E12G17    30.22F
RUSSELLVILLE   SUNNY     67  29  24 VRB6      30.23F
CLINTON        FAIR      66  21  18 E12       30.27F
$$

ARZ036-202300-
EAST ARKANSAS

CITY           SKY/WX    TMP DP  RH WIND       PRES   REMARKS
WEST MEMPHIS   FAIR      70  33  25 NE8G17    30.25F
$$

ARZ050-053-066-070-073-202300-
SOUTHWEST ARKANSAS

CITY           SKY/WX    TMP DP  RH WIND       PRES   REMARKS
ARKADELPHIA    FAIR      69  40  34 VRB6      30.21F
CAMDEN         FAIR      70  32  24 E10G16    30.20F
TEXARKANA      SUNNY     66  38  35 NE9G16    30.18F
EL DORADO      FAIR      69  37  30 NE12      30.20F
DE QUEEN       SUNNY     67  40  37 E13       30.16F
$$

ARZ056-057-069-202300-
SOUTHEAST ARKANSAS

CITY           SKY/WX    TMP DP  RH WIND       PRES   REMARKS
PINE BLUFF     FAIR      67  35  30 E10       30.25F
STUTTGART      FAIR      69  32  25 E9        30.25F
MONTICELLO     FAIR      69  36  29 NE14      30.23F

$$






USA.gov is the U.S. government's official web portal to all federal, state and local government web resources and services.